Date String (YYYY-MM-DD hh:mm:ss) UTC,Instrument flags,absolute air pressure of the measurement (hPa),sample flow rate (lpm),inlet stack bypass flow (lpm),air temperature of the measurement (°C),ambient temperature measured by the external sensor (°C),aerosol sample conditioner tube jacket temperature (°C),OPC LED temperature (°C),internal box temperature (°C),relative humidity of the measurement (%),span deviation,mass concentration of particles derived from Lorenz-Mie calculation of OPC scattering (μg/m³),mass concentration of particles derived from Lorenz-Mie calculation of OPC scattering (μg/m³),mass concentration of particles derived from Lorenz-Mie calculation of OPC scattering (μg/m³)
DateTimeUTC,F1_M11,P_M11,Q1_M11,Q2_M11,T1_M11,T2_M11,T3_M11,T4_M11,T5_M11,U1_M11,ZSPAN_M11,X0_M11,X2_M11,X1_M11
2024-04-10 04:00:00,SystemResetWarning,0828.3,5.00,000.00,026.2,025.5,000.0,034.7,028.1,008.6,0000.0,0008.89,0003.48,0001.57
2024-04-10 04:01:00,SystemResetWarning,0828.4,5.00,000.00,026.2,025.5,000.0,034.7,028.1,008.4,0000.0,0008.83,0003.46,0001.56
2024-04-10 04:02:00,SystemResetWarning,0828.4,5.00,000.00,026.2,025.5,000.0,034.7,028.1,008.4,0000.0,0008.52,0003.45,0001.55
2024-04-10 04:03:00,SystemResetWarning,0828.4,5.00,000.00,026.2,025.5,000.0,034.7,028.1,008.4,0000.0,0008.41,0003.45,0001.56
2024-04-10 04:04:00,SystemResetWarning,0828.4,5.00,000.00,026.2,025.5,000.0,034.7,028.1,008.4,0000.0,0008.47,0003.46,0001.56
2024-04-10 04:05:00,SystemResetWarning,0828.4,5.00,000.00,026.2,025.5,000.0,034.7,028.1,008.4,0000.0,0008.76,0003.53,0001.56
2024-04-10 04:06:00,SystemResetWarning,0828.4,5.01,000.00,026.2,025.5,000.0,034.7,028.1,008.4,0000.0,0008.87,0003.54,0001.56
2024-04-10 04:07:00,SystemResetWarning,0828.4,5.00,000.00,026.2,025.5,000.0,034.7,028.1,008.5,0000.0,0009.00,0003.56,0001.56
2024-04-10 04:08:00,SystemResetWarning,0828.4,5.00,000.00,026.2,025.5,000.0,034.7,028.1,008.5,0000.0,0008.81,0003.52,0001.54
2024-04-10 04:09:00,SystemResetWarning,0828.4,5.00,000.00,026.2,025.5,000.0,034.7,028.1,008.5,0000.0,0008.67,0003.49,0001.52
2024-04-10 04:10:00,SystemResetWarning,0828.4,5.00,000.00,026.2,025.5,000.0,034.7,028.1,008.9,0000.0,0008.54,0003.45,0001.50
2024-04-10 04:11:00,SystemResetWarning,0828.4,5.00,000.00,026.2,025.5,000.0,034.7,028.1,009.2,0000.0,0007.81,0003.40,0001.49
2024-04-10 04:12:00,SystemResetWarning,0828.4,5.00,000.00,026.2,025.5,000.0,034.7,028.1,009.4,0000.0,0007.91,0003.39,0001.50
2024-04-10 04:13:00,SystemResetWarning,0828.4,4.99,000.00,026.2,025.5,000.0,034.7,028.1,009.3,0000.0,0008.25,0003.41,0001.50
2024-04-10 04:14:00,SystemResetWarning,0828.4,4.99,000.00,026.2,025.5,000.0,034.7,028.1,009.2,0000.0,0008.22,0003.37,0001.51
2024-04-10 04:15:00,SystemResetWarning,0828.4,5.00,000.00,026.2,025.5,000.0,034.7,028.1,009.2,0000.0,0008.23,0003.37,0001.52
2024-04-10 04:16:00,SystemResetWarning,0828.4,5.00,000.00,026.2,025.5,000.0,034.7,028.1,009.3,0000.0,0008.29,0003.35,0001.52
2024-04-10 04:17:00,SystemResetWarning,0828.4,5.00,000.00,026.2,025.5,000.0,034.7,028.1,009.5,0000.0,0008.39,0003.35,0001.52
2024-04-10 04:18:00,SystemResetWarning,0828.4,5.00,000.00,026.2,025.5,000.0,034.7,028.0,009.5,0000.0,0008.55,0003.36,0001.52
2024-04-10 04:19:00,SystemResetWarning,0828.4,5.00,000.00,026.2,025.4,000.0,034.7,028.0,009.5,0000.0,0008.57,0003.36,0001.52
2024-04-10 04:20:00,SystemResetWarning,0828.4,5.01,000.00,026.2,025.4,000.0,034.7,028.0,009.6,0000.0,0008.65,0003.38,0001.51
2024-04-10 04:21:00,SystemResetWarning,0828.4,5.01,000.00,026.2,025.4,000.0,034.7,028.0,009.7,0000.0,0008.93,0003.42,0001.50
2024-04-10 04:22:00,SystemResetWarning,0828.4,5.00,000.00,026.2,025.4,000.0,034.7,028.0,009.6,0000.0,0008.96,0003.41,0001.49
2024-04-10 04:23:00,SystemResetWarning,0828.4,4.98,000.00,026.2,025.4,000.0,034.7,028.0,009.6,0000.0,0008.99,0003.43,0001.48
2024-04-10 04:24:00,SystemResetWarning,0828.4,5.00,000.00,026.2,025.4,000.0,034.7,028.0,009.5,0000.0,0008.57,0003.37,0001.47
2024-04-10 04:25:00,SystemResetWarning,0828.4,5.01,000.00,026.2,025.4,000.0,034.7,028.0,009.4,0000.0,0008.53,0003.36,0001.46
2024-04-10 04:26:00,SystemResetWarning,0828.4,5.00,000.00,026.2,025.4,000.0,034.7,028.0,009.4,0000.0,0008.65,0003.38,0001.44
2024-04-10 04:27:00,SystemResetWarning,0828.4,5.00,000.00,026.2,025.3,000.0,034.7,027.9,009.6,0000.0,0008.83,0003.37,0001.44
2024-04-10 04:28:00,SystemResetWarning,0828.4,5.00,000.00,026.1,025.3,000.0,034.6,027.9,009.5,0000.0,0008.74,0003.37,0001.45
2024-04-10 04:29:00,SystemResetWarning,0828.4,4.99,000.00,026.1,025.3,000.0,034.6,027.9,009.6,0000.0,0008.30,0003.36,0001.45
2024-04-10 04:30:00,SystemResetWarning,0828.4,5.01,000.00,026.1,025.3,000.0,034.6,027.9,009.8,0000.0,0008.21,0003.33,0001.45
2024-04-10 04:31:00,SystemResetWarning,0828.4,4.99,000.00,026.1,025.3,000.0,034.6,027.9,010.1,0000.0,0008.35,0003.34,0001.45
2024-04-10 04:32:00,SystemResetWarning,0828.4,5.01,000.00,026.1,025.3,000.0,034.6,027.9,010.2,0000.0,0008.19,0003.32,0001.46
2024-04-10 04:33:00,SystemResetWarning,0828.4,5.00,000.00,026.1,025.3,000.0,034.6,027.9,010.5,0000.0,0008.13,0003.32,0001.46
2024-04-10 04:34:00,SystemResetWarning,0828.4,5.00,000.00,026.1,025.2,000.0,034.6,027.9,010.5,0000.0,0008.07,0003.28,0001.47
2024-04-10 04:35:00,SystemResetWarning,0828.4,5.00,000.00,026.1,025.2,000.0,034.6,027.9,010.5,0000.0,0008.00,0003.28,0001.47
2024-04-10 04:36:00,SystemResetWarning,0828.4,4.99,000.00,026.1,025.2,000.0,034.6,027.9,010.7,0000.0,0008.35,0003.30,0001.47
2024-04-10 04:37:00,SystemResetWarning,0828.4,5.00,000.00,026.0,025.2,000.0,034.6,027.8,010.7,0000.0,0008.55,0003.30,0001.46
2024-04-10 04:38:00,SystemResetWarning,0828.4,4.99,000.00,026.0,025.1,000.0,034.6,027.8,010.6,0000.0,0008.22,0003.28,0001.44
2024-04-10 04:39:00,SystemResetWarning,0828.4,5.00,000.00,026.0,025.1,000.0,034.6,027.8,010.6,0000.0,0008.20,0003.25,0001.42
2024-04-10 04:40:00,SystemResetWarning,0828.4,5.00,000.00,026.0,025.1,000.0,034.6,027.8,010.5,0000.0,0008.23,0003.22,0001.41
2024-04-10 04:41:00,SystemResetWarning,0828.4,5.00,000.00,026.0,025.1,000.0,034.5,027.8,010.6,0000.0,0008.30,0003.21,0001.43
2024-04-10 04:42:00,SystemResetWarning,0828.4,5.00,000.00,026.0,025.1,000.0,034.5,027.8,010.6,0000.0,0008.08,0003.18,0001.44
2024-04-10 04:43:00,SystemResetWarning,0828.4,4.99,000.00,026.0,025.1,000.0,034.5,027.8,010.7,0000.0,0008.05,0003.16,0001.44
2024-04-10 04:44:00,SystemResetWarning,0828.4,5.01,000.00,026.0,025.1,000.0,034.5,027.8,010.7,0000.0,0008.01,0003.17,0001.45
2024-04-10 04:45:00,SystemResetWarning,0828.4,5.01,000.00,026.0,025.1,000.0,034.5,027.7,010.7,0000.0,0008.09,0003.21,0001.45
2024-04-10 04:46:00,SystemResetWarning,0828.4,5.01,000.00,025.9,025.1,000.0,034.5,027.7,010.6,0000.0,0008.24,0003.25,0001.46
2024-04-10 04:47:00,SystemResetWarning,0828.4,4.98,000.00,025.9,025.1,000.0,034.5,027.7,010.3,0000.0,0007.96,0003.24,0001.47
2024-04-10 04:48:00,SystemResetWarning,0828.4,5.00,000.00,025.9,025.0,000.0,034.5,027.7,010.4,0000.0,0007.68,0003.23,0001.49
2024-04-10 04:49:00,SystemResetWarning,0828.4,5.01,000.00,025.9,025.0,000.0,034.5,027.7,010.4,0000.0,0007.57,0003.21,0001.50
2024-04-10 04:50:00,SystemResetWarning,0828.4,5.00,000.00,025.9,025.0,000.0,034.4,027.7,010.5,0000.0,0007.47,0003.20,0001.50
2024-04-10 04:51:00,SystemResetWarning,0828.4,5.00,000.00,025.9,025.0,000.0,034.4,027.7,010.5,0000.0,0007.37,0003.20,0001.51
2024-04-10 04:52:00,SystemResetWarning,0828.4,4.99,000.00,025.9,025.0,000.0,034.4,027.7,010.6,0000.0,0007.39,0003.25,0001.51
2024-04-10 04:53:00,SystemResetWarning,0828.4,5.00,000.00,025.9,025.0,000.0,034.4,027.7,010.5,0000.0,0007.71,0003.36,0001.51
2024-04-10 04:54:00,SystemResetWarning,0828.3,5.00,000.00,025.9,025.0,000.0,034.4,027.7,010.5,0000.0,0007.74,0003.39,0001.52
2024-04-10 04:55:00,SystemResetWarning,0828.4,5.00,000.00,025.9,025.0,000.0,034.4,027.6,010.3,0000.0,0007.80,0003.39,0001.52
2024-04-10 04:56:00,SystemResetWarning,0828.4,5.00,000.00,025.8,025.0,000.0,034.4,027.6,010.2,0000.0,0008.04,0003.42,0001.54
2024-04-10 04:57:00,SystemResetWarning,0828.4,5.01,000.00,025.8,024.9,000.0,034.4,027.6,010.3,0000.0,0008.06,0003.40,0001.56
2024-04-10 04:58:00,SystemResetWarning,0828.4,5.00,000.00,025.8,024.9,000.0,034.4,027.6,010.3,0000.0,0008.10,0003.41,0001.58
2024-04-10 04:59:00,SystemResetWarning,0828.4,5.00,000.00,025.8,024.9,000.0,034.4,027.5,010.3,0000.0,0008.10,0003.44,0001.58
